This is the latest recevied weather packets stored in our database for station/object N8QQ. If no packets are shown the sender has not sent any weather packets the latest 10 day(s).
| Time | Temp. | Humidity | Pressure | Rain* | Wind** | Luminosity | Snow |
|---|---|---|---|---|---|---|---|
| 1777958440 | 18.89° C | 62% | 1001.2 hPa | 0 mm | - | - | - |
| 1777956033 | 18.89° C | 63% | 1001.5 hPa | 0 mm | - | - | - |
| 1777953018 | 19.44° C | 63% | 1002 hPa | 0 mm | - | - | - |
| 1777947025 | 18.33° C | 68% | 1000.9 hPa | 0 mm | - | - | - |
| 1777945832 | 18.89° C | 67% | 1000.7 hPa | 0 mm | - | - | - |
| 1777942851 | 20° C | 62% | 1000.5 hPa | 0 mm | - | - | - |
| 1777939231 | 22.22° C | 55% | 1000.8 hPa | 0 mm | - | - | - |
| 1777936217 | 23.89° C | 49% | 1001.2 hPa | 0 mm | - | - | - |
| 1777935023 | 23.89° C | 49% | 1001.4 hPa | 0 mm | - | - | - |
| 1777934426 | 24.44° C | 49% | 1001.4 hPa | 0 mm | - | - | - |
| 1777925424 | 23.89° C | 54% | 1003.1 hPa | 0 mm | - | - | - |
| 1777924822 | - | - | 1003.2 hPa | 0 mm | - | - | - |
| 1777923052 | 23.89° C | 56% | 1004 hPa | 0 mm | - | - | - |
| 1777920626 | 21.11° C | 63% | 1004.3 hPa | 0 mm | - | - | - |
| 1777914045 | 21.11° C | 65% | 1003.5 hPa | 0 mm | - | - | - |
| 1777911025 | 20° C | 64% | 1004.4 hPa | 0 mm | - | - | - |
| 1777909830 | 20° C | 64% | 1004.2 hPa | 0 mm | - | - | - |
| 1777908658 | 19.44° C | 64% | 1004.5 hPa | 0 mm | - | - | - |
| 1777906847 | 18.89° C | 67% | 1004.3 hPa | 0 mm | - | - | - |
| 1777903221 | 18.33° C | 64% | 1004.6 hPa | 0 mm | - | - | - |
| 1777902618 | 17.22° C | 68% | 1004.8 hPa | 0 mm | - | - | - |
| 1777899031 | 13.33° C | 74% | 1004.9 hPa | 0 mm | - | - | - |
| 1777896028 | 12.78° C | 74% | 1004.8 hPa | 0 mm | - | - | - |
| 1777893025 | 11.67° C | 72% | 1004.7 hPa | 0 mm | - | - | - |
| 1777891826 | 11.11° C | 74% | 1004.8 hPa | 0 mm | - | - | - |
* Rain latest hour (hover to see other rain measurements)
** Current wind speed in m/s (hover to see current wind gust speed)